When you browse on this site, cookies collect data to enhance your experience and personalize the content and advertising you see.
Visit our Privacy Policy to learn more. By continuing to use the site, you agree to this use of cookies and data.
EN

Hourly Weather Kakanj

Today, 16 July, Thursday

Time Temperature Precipitation Wind Pressure Humidity
00:00 +15°C° 0 mm 1 mps 722 mmHg 88%
01:00 +14°C° 0 mm 1 mps 722 mmHg 89%
02:00 +14°C° 0 mm 1 mps 722 mmHg 88%
03:00 +13°C° 0 mm 1 mps 722 mmHg 88%
04:00 +13°C° 0 mm 1 mps 721 mmHg 88%
05:00 +15°C° 0 mm 1 mps 722 mmHg 83%
06:00 +18°C° 0 mm 1 mps 722 mmHg 79%
07:00 +18°C° 0 mm 0 mps 722 mmHg 74%
08:00 +22°C° 0 mm 1 mps 723 mmHg 67%
09:00 +24°C° 0 mm 1 mps 723 mmHg 59%
10:00 +26°C° 0 mm 1 mps 723 mmHg 52%
11:00 +27°C° 0.1 mm 1 mps 723 mmHg 51%
12:00 +27°C° 0.1 mm 1 mps 723 mmHg 50%
13:00 +27°C° 0.1 mm 1 mps 722 mmHg 49%
14:00 +26°C° 0.4 mm 1 mps 722 mmHg 56%
15:00 +26°C° 0.4 mm 1 mps 722 mmHg 63%
16:00 +25°C° 0.4 mm 1 mps 721 mmHg 70%
17:00 +23°C° 0.4 mm 1 mps 721 mmHg 76%
18:00 +22°C° 0.4 mm 1 mps 721 mmHg 82%
19:00 +20°C° 0.4 mm 1 mps 721 mmHg 88%
20:00 +19°C° 0 mm 1 mps 721 mmHg 89%
21:00 +16°C° 0 mm 0 mps 721 mmHg 89%
22:00 +16°C° 0 mm 0 mps 721 mmHg 90%
23:00 +15°C° 0 mm 0 mps 721 mmHg 90%

Tomorrow, 17 July, Friday

Time Temperature Precipitation Wind Pressure Humidity
00:00 +15°C° 0 mm 0 mps 721 mmHg 91%
01:00 +15°C° 0 mm 0 mps 721 mmHg 92%
02:00 +14°C° 0 mm 0 mps 721 mmHg 93%
03:00 +14°C° 0 mm 0 mps 721 mmHg 95%
04:00 +13°C° 0 mm 0 mps 720 mmHg 96%
05:00 +14°C° 0 mm 0 mps 721 mmHg 95%
06:00 +18°C° 0 mm 1 mps 721 mmHg 93%
07:00 +19°C° 0 mm 1 mps 721 mmHg 92%
08:00 +19°C° 0.1 mm 1 mps 721 mmHg 91%
09:00 +18°C° 0.1 mm 2 mps 721 mmHg 91%
10:00 +19°C° 0.1 mm 2 mps 721 mmHg 90%
11:00 +18°C° 0.4 mm 2 mps 721 mmHg 90%
12:00 +18°C° 0.4 mm 2 mps 721 mmHg 90%
13:00 +18°C° 0.4 mm 2 mps 721 mmHg 91%
14:00 +17°C° 2.4 mm 2 mps 721 mmHg 93%
15:00 +16°C° 2.4 mm 2 mps 721 mmHg 95%
16:00 +15°C° 2.4 mm 2 mps 721 mmHg 98%
17:00 +15°C° 0.9 mm 1 mps 721 mmHg 98%
18:00 +15°C° 0.9 mm 1 mps 721 mmHg 98%
19:00 +15°C° 0.9 mm 1 mps 721 mmHg 98%
20:00 +15°C° 0 mm 1 mps 721 mmHg 98%
21:00 +15°C° 0 mm 1 mps 721 mmHg 98%
22:00 +15°C° 0 mm 1 mps 722 mmHg 98%
23:00 +14°C° 0.1 mm 1 mps 722 mmHg 98%

Day after tomorrow, 18 July, Saturday

Time Temperature Precipitation Wind Pressure Humidity
00:00 +14°C° 0.1 mm 1 mps 721 mmHg 98%
01:00 +14°C° 0.1 mm 1 mps 721 mmHg 97%
02:00 +14°C° 0.1 mm 1 mps 721 mmHg 97%
03:00 +14°C° 0.1 mm 1 mps 721 mmHg 97%
04:00 +14°C° 0.1 mm 1 mps 721 mmHg 96%
05:00 +14°C° 0 mm 1 mps 721 mmHg 95%
06:00 +15°C° 0 mm 1 mps 721 mmHg 94%
07:00 +16°C° 0 mm 1 mps 721 mmHg 93%
08:00 +18°C° 0.1 mm 1 mps 721 mmHg 85%
09:00 +20°C° 0.1 mm 1 mps 722 mmHg 77%
10:00 +21°C° 0.1 mm 1 mps 722 mmHg 69%
11:00 +22°C° 0.2 mm 1 mps 722 mmHg 67%
12:00 +21°C° 0.2 mm 2 mps 721 mmHg 65%
13:00 +23°C° 0.2 mm 2 mps 721 mmHg 62%
14:00 +21°C° 0.7 mm 2 mps 721 mmHg 69%
15:00 +21°C° 0.7 mm 2 mps 721 mmHg 75%
16:00 +20°C° 0.7 mm 2 mps 720 mmHg 81%
17:00 +20°C° 0.3 mm 1 mps 720 mmHg 85%
18:00 +19°C° 0.3 mm 1 mps 720 mmHg 88%
19:00 +18°C° 0.3 mm 1 mps 720 mmHg 92%
20:00 +15°C° 0 mm 0 mps 721 mmHg 92%
21:00 +14°C° 0 mm 0 mps 721 mmHg 92%
22:00 +13°C° 0 mm 0 mps 721 mmHg 92%
23:00 +12°C° 0 mm 0 mps 721 mmHg 93%

19 July, Sunday

Time Temperature Precipitation Wind Pressure Humidity
00:00 +12°C° 0 mm 0 mps 721 mmHg 93%
01:00 +12°C° 0 mm 0 mps 721 mmHg 93%
02:00 +12°C° 0 mm 0 mps 721 mmHg 93%
03:00 +11°C° 0 mm 0 mps 721 mmHg 93%
04:00 +11°C° 0 mm 0 mps 721 mmHg 93%
05:00 +13°C° 0 mm 0 mps 722 mmHg 91%
06:00 +15°C° 0 mm 0 mps 722 mmHg 88%
07:00 +16°C° 0 mm 0 mps 722 mmHg 86%
08:00 +18°C° 0 mm 0 mps 722 mmHg 75%
09:00 +21°C° 0 mm 0 mps 722 mmHg 65%
10:00 +25°C° 0 mm 1 mps 723 mmHg 54%
11:00 +25°C° 0 mm 1 mps 723 mmHg 53%
12:00 +26°C° 0 mm 1 mps 722 mmHg 52%
13:00 +26°C° 0 mm 1 mps 722 mmHg 51%
14:00 +26°C° 0.3 mm 1 mps 722 mmHg 55%
15:00 +25°C° 0.3 mm 1 mps 722 mmHg 58%
16:00 +25°C° 0.3 mm 1 mps 722 mmHg 62%
17:00 +23°C° 0.3 mm 1 mps 721 mmHg 70%
18:00 +21°C° 0.3 mm 1 mps 721 mmHg 77%
19:00 +18°C° 0.3 mm 0 mps 721 mmHg 85%
20:00 +17°C° 0.2 mm 0 mps 721 mmHg 86%
21:00 +16°C° 0.2 mm 0 mps 721 mmHg 87%
22:00 +15°C° 0.2 mm 0 mps 721 mmHg 89%
23:00 +15°C° 0.2 mm 0 mps 721 mmHg 90%

20 July, Monday

Time Temperature Precipitation Wind Pressure Humidity
00:00 +14°C° 0.2 mm 0 mps 721 mmHg 90%
01:00 +14°C° 0.2 mm 0 mps 721 mmHg 91%
02:00 +14°C° 0 mm 0 mps 721 mmHg 92%
03:00 +13°C° 0 mm 0 mps 721 mmHg 92%
04:00 +13°C° 0 mm 0 mps 721 mmHg 92%
05:00 +15°C° 0 mm 0 mps 721 mmHg 90%
06:00 +16°C° 0 mm 0 mps 722 mmHg 88%
07:00 +18°C° 0 mm 0 mps 722 mmHg 86%
08:00 +22°C° 0 mm 1 mps 722 mmHg 75%
09:00 +24°C° 0 mm 1 mps 723 mmHg 64%
10:00 +26°C° 0 mm 1 mps 723 mmHg 53%
11:00 +27°C° 0 mm 1 mps 723 mmHg 50%
12:00 +27°C° 0 mm 1 mps 723 mmHg 47%
13:00 +28°C° 0 mm 1 mps 723 mmHg 44%
14:00 +28°C° 0 mm 1 mps 722 mmHg 45%
15:00 +28°C° 0 mm 1 mps 722 mmHg 46%
16:00 +28°C° 0 mm 1 mps 722 mmHg 47%
17:00 +26°C° 0 mm 1 mps 722 mmHg 56%
18:00 +23°C° 0 mm 1 mps 722 mmHg 66%
19:00 +21°C° 0 mm 1 mps 722 mmHg 76%
20:00 +20°C° 0 mm 1 mps 722 mmHg 77%
21:00 +19°C° 0 mm 1 mps 722 mmHg 79%
22:00 +18°C° 0 mm 1 mps 722 mmHg 80%
23:00 +18°C° 0 mm 1 mps 722 mmHg 80%

21 July, Tuesday

Time Temperature Precipitation Wind Pressure Humidity
00:00 +18°C° 0 mm 1 mps 722 mmHg 80%
01:00 +16°C° 0 mm 1 mps 723 mmHg 79%
02:00 +16°C° 0 mm 1 mps 723 mmHg 79%
03:00 +16°C° 0 mm 1 mps 723 mmHg 80%
04:00 +16°C° 0 mm 1 mps 723 mmHg 80%
05:00 +17°C° 0 mm 0 mps 723 mmHg 76%
06:00 +19°C° 0 mm 0 mps 723 mmHg 71%
07:00 +21°C° 0 mm 0 mps 724 mmHg 67%
08:00 +23°C° 0 mm 0 mps 724 mmHg 62%
09:00 +27°C° 0 mm 1 mps 724 mmHg 56%
10:00 +28°C° 0 mm 1 mps 725 mmHg 51%
11:00 +29°C° 0 mm 1 mps 725 mmHg 48%
12:00 +30°C° 0 mm 1 mps 724 mmHg 46%
13:00 +30°C° 0 mm 1 mps 724 mmHg 44%
14:00 +30°C° 0 mm 1 mps 724 mmHg 45%
15:00 +30°C° 0 mm 1 mps 724 mmHg 47%
16:00 +29°C° 0 mm 2 mps 723 mmHg 49%
17:00 +27°C° 0 mm 1 mps 723 mmHg 59%
18:00 +25°C° 0 mm 1 mps 723 mmHg 69%
19:00 +23°C° 0 mm 1 mps 722 mmHg 79%
20:00 +22°C° 0 mm 1 mps 723 mmHg 81%
21:00 +21°C° 0 mm 1 mps 723 mmHg 83%
22:00 +20°C° 0 mm 1 mps 723 mmHg 85%
23:00 +20°C° 0 mm 1 mps 723 mmHg 85%
Show more